Regional Weather Roundup
Issued by NWS Wakefield, VA

Home | Current Version | Previous Version | Text Only | Print | Product List | Glossary Off
Versions: 1 2 3 4 5 6 7 8 9 10 11 12 13 14 15 16 17 18 19 20 21 22 23 24 25 26 27 28 29 30 31 32 33 34 35 36 37 38 39 40 41 42 43 44 45 46 47 48 49 50

000
ASUS41 KAKQ 010315
RWRAKQ

REGIONAL WEATHER ROUNDUP
NATIONAL WEATHER SERVICE WAKEFIELD VA
1100 PM EDT TUE JUN 30 2015

Note: "fair" indicates few or no clouds below 12,000 feet with no
significant weather and/or obstructions to visibility. * = Denotes
station may not report precipitation (e.g., rain,snow,etc.),
thunder or fog.

VAZ042-051-052>054-056-010400-
NORTHERN VIRGINIA

CITY           SKY/WX    TMP DP  RH WIND       PRES   REMARKS
WASH NATIONAL  CLOUDY    78  69  73 S8        29.81F
DULLES         CLOUDY    76  68  76 SW3       29.82S
FORT BELVOIR   CLOUDY    72  69  90 CALM      29.81F
QUANTICO       CLOUDY    80  71  74 CALM      29.81F
FREDERICKSBRG* CLOUDY    78  71  81 CALM      29.81S
STAFFORD*      CLOUDY    71  69  92 CALM      29.85F
WARRENTON      CLOUDY    73  71  92 CALM      29.82S
CULPEPER*      CLOUDY    72  69  90 CALM      29.83S
MANASSAS*      CLOUDY    73  72  94 CALM      29.82
LEESBURG*      LGT RAIN  73  72  94 W10G16    29.84R
WINCHESTER     CLOUDY    72  61  68 S7        29.84S
FRONT ROYAL*   CLOUDY    64  63  94 S6        29.85R
LURAY*         LGT RAIN  73  63  68 SE5       29.86S
$$

VAZ048-049-060>072-079>083-010400-
CENTRAL AND SOUTH CENTRAL VIRGINIA

CITY           SKY/WX    TMP DP  RH WIND       PRES   REMARKS
RICHMOND       CLOUDY    73  69  87 S16G24    29.87R THUNDER
CHESTERFIELD*  FAIR      72  57  60 S8        29.89R
PETERSBURG*    LGT RAIN  70  70 100 S9        29.90F
HANOVER        TSTM      75  68  78 S24G31    29.93R
TAPPAHANNOCK*  CLOUDY    77  67  73 S14       29.87R THUNDER
QUINTON*       FAIR      73  70  91 S7        29.89R
CHARLOTTSVILLE CLOUDY    76  67  73 SW7       29.84R
GORDONSVILLE*  FAIR      72  70  94 CALM      29.82F
ORANGE*        CLOUDY    72  70  94 CALM      29.84F
LOUISA*        CLOUDY    77  70  78 S5        29.82F
BUMPASS*       FAIR      75  70  84 CALM      29.83S
FARMVILLE*     MOCLDY    74  65  72 S9G16     29.86R
CREWE*         FAIR      73  64  72 S9        29.87F
FORT PICKETT*  CLOUDY    69  66  91 S8        29.89S
CHASE CITY*    MOCLDY    73  72  96 S3        29.89R
CLARKSVILLE*   FAIR      70  68  94 S6        29.90R
SOUTH HILL*    CLOUDY    69  67  94 CALM      29.96R
LAWRENCEVILLE* NOT AVBL
EMPORIA*       CLOUDY    68  66  94 E3        29.92F
$$

VAZ088>098-010400-
SOUTHEAST VIRGINIA

CITY           SKY/WX    TMP DP  RH WIND       PRES   REMARKS
NORFOLK        CLOUDY    80  64  58 W6        29.91R
VIRGINIA BEACH CLOUDY    80  63  55 SW10      29.90R
NORFOLK NAVAL  CLOUDY    78  66  66 W21G29    29.94R
WEST POINT*    CLOUDY    76  68  78 S15G32    29.93R
SALUDA*        FAIR      78  67  70 S13G26    29.88R
NEWPORT NEWS   RAIN      73  68  84 SW17      29.92R
LANGLEY AFB    CLOUDY    72  66  83 SW16      29.91F
FORT EUSTIS    RAIN      73  73 100 W13G25    29.92R
WILLIAMSBURG*  CLOUDY    75  70  83 W13G25    29.96R
HR EXEC AP*    MOCLDY    73  64  73 W12G24    29.97R
FRANKLIN*      TSTM      68  67  94 SW5       29.98F
WAKEFIELD      RAIN      70  66  87 S3        29.94F
$$

VAZ020-022-025-037-045-010400-
WEST CENTRAL AND SOUTHWEST VIRGINIA

CITY           SKY/WX    TMP DP  RH WIND       PRES   REMARKS
STAUNTON*      LGT RAIN  70  65  83 CALM      29.91S
WAYNESBORO*    MOCLDY    71  63  77 W6        29.91R
HOT SPRINGS VA LGT RAIN  61  61 100 W10       30.02R
LYNCHBURG      TSTM      70  67  90 NW5       29.91R
DANVILLE       CLOUDY    71  67  87 CALM      29.90R
SOUTH BOSTON*  FAIR      70  66  86 MISG      29.89R
MARTINSVILLE   CLOUDY    73  66  76 NW8       29.96R
ROANOKE        TSTM      72  65  78 W17G28    29.95R
BLACKSBURG     CLOUDY    66  64  93 NW6       30.02R
DUBLIN*        CLOUDY    67  65  94 CALM      30.01R
MARION*        PTCLDY    66  63  90 W6        30.05R
HILLSVILLE*    PTCLDY    70  59  67 W12G21    30.01R
RICHLANDS*     LGT RAIN  62  60  94 N5        30.04R
WISE*          PTCLDY    61  52  72 CALM      30.06F
ABINGDON*      MOCLDY    69  64  84 W3        30.02S
$$

MDZ021>025-VAZ099-100-010400-
SOUTHERN MARYLAND AND THE DELMARVA PENINSULA

CITY           SKY/WX    TMP DP  RH WIND       PRES   REMARKS
PATUXENT RIVER CLOUDY    79  68  69 S5        29.83S
BAY BRIDGE APT   N/A     77  70  78 S7        29.82F
LEONARDTOWN    CLOUDY    75  68  78 CALM      29.85S
DOVER          PTCLDY    74  74 100 S6        29.81F
GEORGETOWN     PTCLDY    75  71  87 S9        29.86S THUNDER
EASTON         MOCLDY    77  71  83 S5        29.87S
CAMBRIDGE      MOCLDY    73  70  88 SE5       29.83S
SALISBURY      MOCLDY    76  72  87 S6        29.85F
OCEAN CITY     PTCLDY    77  72  84 SW12G22   29.86F
WALLOPS ISLAND MOCLDY    78  74  87 S12       29.87S
ACCOMACK*      CLOUDY    79  73  83 S7        29.87R
$$

NCZ012>017-030>032-010400-
NORTH CENTRAL AND EASTERN NORTH CAROLINA

CITY           SKY/WX    TMP DP  RH WIND       PRES   REMARKS
ROANOKE RAPIDS FAIR      68  68 100 SE5       29.92F
RALEIGH        CLOUDY    72  66  81 SW10G23   29.92S
ELIZABETH CITY HAZE      79  68  69 SW13      29.92R VSB 1
AHOSKIE*       LGT RAIN  68  67  96 N3        29.95F
EDENTON*         N/A     81  69  67 SW12      29.93R
CURRITUCK*     PTCLDY    78  62  57 S5        29.93R
KILL DEVIL HLS PTCLDY    80  69  68 SW10      29.93S
MANTEO         PTCLDY    80  71  72 SW16      29.94S
CAPE HATTERAS  PTCLDY    80  72  76 SW16G24   29.97S
TARBORO*         N/A     77  66  69 W3        29.93F
GOLDSBORO      CLOUDY    72  69  92 SE9       29.92F
WASHINGTON     CLOUDY    80  68  67 SW9       29.94R
GREENVILLE     CLOUDY    79  64  61 SW14      29.96R
NEW BERN       MOCLDY    79  68  69 SW8       29.97R
WILMINGTON     CLOUDY    80  73  79 SW8       29.96F
$$

VAZ048-010400-
ELSEWHERE

CITY           SKY/WX    TMP DP  RH WIND       PRES   REMARKS
HARRISBURG PA  CLOUDY    73  66  78 CALM      29.79S
BALTIMORE      MOCLDY    75  70  84 CALM      29.80F
ANNAPOLIS      MOCLDY    77  72  84 S9        29.81F
ANDREWS AFB    MOCLDY    74  71  90 S8        29.81F
PHILADELPHIA   MOCLDY    75  70  84 S3        29.83F
HENDERSON NC   CLOUDY    70  67  89 S10G17    29.91S
GREENSBORO     CLOUDY    74  64  71 SW7       29.93R
ROCKY MOUNT    CLOUDY    73  68  84 S9        29.92F
$$

VAZ100-010400-
MARINE

STATION/POSITION TIME  TEMP    WIND        PRES    WAVE   SWELL
                       AIR SEA DIR/SP/G            HT/PER HT/PER
                 (UTC) (F)     (DEG/KT/KT) (MB)    (FT/S) (FT/S)
BRANDYWINE LGT   0200   73 71  180/ 17/ 19 1011.0R
CAPE MAY NJ      0200   74 78  160/ 10/ 13 1011.0R
LEWES DE         0200   76 71  180/  6/ 10 1010.9R
15NM E FENWICK I 0250   75 72              1010.8F   4/ 8
OCEAN-CITY-INLET 0200   75 73  210/ 10/ 11 1011.2R
WACHAPREAGUE VA  0200   80 82  200/ 11/ 14 1011.1S
THOMAS POINT MD  0300   78 76  170/ 13/ 14 1010.0
GOOSES REEF MD   0300   80 78  180/  8/ 10 1011.0F
COVE POINT MD    0200   79     190/  8/ 10 1010.8R
SOLOMONS ISLAND  0200      81                N/A
BISHOPS HEAD MD  0200   81     160/ 12/ 13 1010.2S
PINEY POINT MD   0200          180/  9/ 10   N/A
CAMBRIDGE MD     0200   76 79  180/  4/  6 1010.2R
LEWISETTA VA     0200   79 81  190/  5/  8 1009.9F
RAPPAHANNOCK LGT 0200          170/ 16/ 18 1011.1S
STINGRAY PT      0300   77 80  220/ 21/ 25 1011.6R   2/ 2
YORK RVR RNG VA  0200   81     240/ 34/ 42 1010.5R
YORKTOWN VA      0200   75 81  210/ 21/ 32 1011.7R
JAMESTOWN VA     0300   72 83  210/ 14/ 17   N/A
DOMINION TERM VA 0200   80     240/ 14/ 18 1012.1R
KIPTOPEKE VA     0200      84  220/ 14/ 17   N/A
CHES BAY BRIDGE  0200   81 71  200/ 16/ 19 1011.0S
CHESAPEAKE LGHT  0200   81     200/ 24/ 25 1011.6F
WILLOUBY STN VA  0200   80     240/ 16/ 19 1013.0R
CAPE HENRY BUOY  0228      78                N/A     4/ 5
1ST LANDING BUOY 0300      75              1012.4R   1/ 3
CAPE CHARLES BUO 0226      77                N/A     3/ 5   2/ 8
OFFSHORE WE BUOY 0211      78                N/A     4/ 5   2/ 8
64NM E OF VA BCH 0250   78 76  200/ 16/ 19 1012.8F   5/ 5   2/13
DUCK PIER NC     0200   83 69  210/ 14/ 21 1012.1R
44100 DUCK FRF   0224      77                N/A     3/ 8
44056 DUCK FRF   0211      75                N/A     2/ 8
OREGON INLET NC  0200   82 84  200/ 20/ 24 1013.7R
HATTERAS NC      0200   81 83  220/ 12/ 21 1014.4R
DIAMOND SHLS NC  0250   83 81  220/ 23/ 25 1014.5R   5/ 5   2/ 8
CAPE LOOKOUT NC  0300   81     220/ 12/ 17 1014.8S
$$


USA.gov is the U.S. government's official web portal to all federal, state and local government web resources and services.